Location: Rathdrum
(47.8130°N, 116.8960°W)
Time: 21:06:47
(UTC-08:00)

Amateur Radio Satellites - All Passes

Search period start: 22 February 2017 20:36
Search period end: 23 February 2017 20:36
Location: Rathdrum, 47.8130°N, 116.8960°W

Satellite Date Start Highest point End Downlink Frequencies (MHz)
Time Altitude Azimuth
AO-73 22 Feb 20:43:12 20:46:58 27° 267° (W) 20:50:49 145.935
ESTCUBE 1 22 Feb 20:50:44 20:53:03 14° 58° (ENE) 20:55:22 437.505/2401.250
Oscar 11 22 Feb 20:54:05 20:57:33 23° 267° (W) 21:01:01 .
UWE-3 22 Feb 21:04:50 21:05:45 11° 275° (W) 21:06:41 435.000/436.395/437.385
UNISAT 6 22 Feb 21:11:34 21:15:31 26° 93° (E) 21:19:26 437.425
TIGRISAT 22 Feb 21:12:50 21:16:43 25° 93° (E) 21:20:34 435.000
RS-15 22 Feb 21:14:12 21:25:26 39° 344° (NNW) 21:36:46 29.354- 29.394
VELOX 1 22 Feb 21:29:25 21:31:04 12° 56° (ENE) 21:32:44 145.980
FO-29 22 Feb 21:42:35 21:49:30 34° 91° (E) 21:55:55 435.910
PRISM 22 Feb 21:54:25 21:58:24 54° 288° (WNW) 22:02:22 437.425
DELFI C3 22 Feb 21:56:06 21:58:09 14° 271° (W) 22:00:11 145.870
SPROUT 22 Feb 21:57:45 22:00:29 17° 61° (ENE) 22:03:13 437.525
YUBILEINY 22 Feb 22:14:20 22:22:50 58° 269° (W) 22:31:15 435.215
SO-50 22 Feb 22:21:24 22:25:40 36° 119° (ESE) 22:29:55 436.795
ESTCUBE 1 22 Feb 22:24:42 22:29:13 84° 254° (WSW) 22:33:47 437.505/2401.250
50 SAT 22 Feb 22:35:58 22:39:00 28° 68° (ENE) 22:42:03 437.505
DUCHIFAT 1 22 Feb 22:39:45 22:42:25 16° 90° (E) 22:45:05 145.980
EO-79 22 Feb 22:46:39 22:50:02 22° 93° (E) 22:53:24 145.935-145.965
UNISAT 6 22 Feb 22:47:55 22:52:21 41° 292° (WNW) 22:56:45 437.425
TIGRISAT 22 Feb 22:49:05 22:53:34 43° 291° (WNW) 22:57:59 435.000
AIST 2D 22 Feb 23:01:59 23:05:29 50° 99° (E) 23:08:57 435.315
VELOX 1 22 Feb 23:02:27 23:06:49 86° 79° (E) 23:11:15 145.980
POLYITAN 1 22 Feb 23:02:56 23:06:49 32° 96° (E) 23:10:41 437.675
DX 1 22 Feb 23:03:39 23:07:44 42° 69° (ENE) 23:11:50 434.975-435.025
NANOSAT C BR1 22 Feb 23:05:09 23:08:59 31° 96° (E) 23:12:48 145.865
QB50P2 22 Feb 23:05:42 23:09:41 36° 97° (E) 23:13:39 145.880/145.840
PCSat 22 Feb 23:10:44 23:14:25 18° 30° (NNE) 23:18:05 145.827
O/OREOS (USA 219) 22 Feb 23:12:51 23:17:20 82° 114° (ESE) 23:21:51 437.305
UKube-1 22 Feb 23:21:21 23:25:29 47° 70° (ENE) 23:29:37 .
FO-29 22 Feb 23:27:14 23:34:55 61° 292° (WNW) 23:42:01 435.910
RS-15 22 Feb 23:30:36 23:42:03 40° 18° (NNE) 23:53:17 29.354- 29.394
SPROUT 22 Feb 23:31:45 23:35:58 60° 260° (W) 23:40:12 437.525
BUGSAT 1 22 Feb 23:47:29 23:51:12 29° 96° (E) 23:54:54 437.445
ITUPSAT 1 22 Feb 23:57:22 23:59:13 12° 54° (NE) 00:01:04 437.325
SO-50 23 Feb 00:01:46 00:06:08 38° 318° (NW) 00:10:28 436.795
BEESAT 23 Feb 00:05:04 00:07:35 14° 56° (NE) 00:10:06 436.000
50 SAT 23 Feb 00:09:23 00:12:09 21° 265° (W) 00:14:55 437.505
DUCHIFAT 1 23 Feb 00:14:15 00:18:28 56° 288° (WNW) 00:22:38 145.980
Oscar 19 23 Feb 00:14:36 00:18:10 19° 90° (E) 00:21:44 437.125/150
YUBILEINY 23 Feb 00:14:52 00:17:33 12° 292° (WNW) 00:20:13 435.215
EO-79 23 Feb 00:21:56 00:25:58 41° 291° (WNW) 00:29:58 145.935-145.965
AIST 2D 23 Feb 00:36:25 00:38:21 14° 297° (WNW) 00:40:15 435.315
Gurwin Techsat 1B 23 Feb 00:37:34 00:41:08 18° 89° (E) 00:44:41 435.225
POLYITAN 1 23 Feb 00:38:49 00:42:32 29° 294° (WNW) 00:46:14 437.675
DX 1 23 Feb 00:40:45 00:44:06 22° 267° (W) 00:47:28 434.975-435.025
NANOSAT C BR1 23 Feb 00:40:56 00:44:39 29° 294° (WNW) 00:48:20 145.865
QB50P2 23 Feb 00:41:47 00:45:21 26° 295° (WNW) 00:48:52 145.880/145.840
VELOX 1 23 Feb 00:42:42 00:43:55 11° 273° (W) 00:45:07 145.980
MOZHAYETS 4 23 Feb 00:50:26 00:52:37 13° 57° (ENE) 00:54:49
PCSat 23 Feb 00:53:29 00:58:54 64° 52° (NE) 01:04:17 145.827
O/OREOS (USA 219) 23 Feb 00:54:31 00:57:22 16° 315° (NW) 01:00:14 437.305
UKube-1 23 Feb 00:58:38 01:01:45 19° 268° (W) 01:04:54 .
FO-29 23 Feb 01:13:47 01:18:22 17° 314° (NW) 01:22:48 435.910
BUGSAT 1 23 Feb 01:22:49 01:26:33 31° 293° (WNW) 01:30:17 437.445
ITUPSAT 1 23 Feb 01:31:25 01:36:13 75° 73° (ENE) 01:41:03 437.325
BEESAT 23 Feb 01:39:52 01:44:39 89° 108° (ESE) 01:49:29 436.000
KKS-1 23 Feb 01:41:33 01:43:10 12° 56° (NE) 01:44:46 437.445
RS-15 23 Feb 01:44:22 01:56:50 78° 49° (NE) 02:08:50 29.354- 29.394
SO-50 23 Feb 01:45:41 01:47:52 13° 341° (NNW) 01:50:01 436.795
Oscar 19 23 Feb 01:52:53 01:57:58 65° 288° (WNW) 02:03:02 437.125/150
Gurwin Techsat 1B 23 Feb 02:16:18 02:21:39 72° 287° (WNW) 02:26:56 435.225
ITAMSAT 1 23 Feb 02:20:58 02:25:27 28° 94° (E) 02:29:54 435.822/435.867
STARS 23 Feb 02:22:21 02:24:35 14° 57° (ENE) 02:26:49 437.465
MOZHAYETS 4 23 Feb 02:24:25 02:29:04 88° 77° (ENE) 02:33:45
PCSat 23 Feb 02:37:37 02:41:51 24° 252° (WSW) 02:46:04 145.827
AO-7 23 Feb 02:46:31 02:54:09 38° 97° (E) 03:01:41 .
ITUPSAT 1 23 Feb 03:11:53 03:14:36 15° 271° (W) 03:17:21 437.325
KKS-1 23 Feb 03:14:34 03:19:00 83° 73° (ENE) 03:23:28 437.445
CUBESAT XI-V 23 Feb 03:16:50 03:21:22 53° 71° (ENE) 03:25:54 437.345
BEESAT 23 Feb 03:21:17 03:23:08 12° 273° (W) 03:24:59 436.000
Oscar 19 23 Feb 03:34:42 03:36:20 11° 308° (NW) 03:37:57 437.125/150
M-CUBED/EXP-1 PRIME 23 Feb 03:40:57 03:44:13 69° 68° (ENE) 03:47:28 437.505
STARS 23 Feb 03:55:57 04:00:19 81° 257° (WSW) 04:04:44 437.465
RS-15 23 Feb 03:57:38 04:08:23 38° 254° (WSW) 04:18:47 29.354- 29.394
Gurwin Techsat 1B 23 Feb 03:58:14 04:00:40 13° 307° (NW) 04:03:07 435.225
ITAMSAT 1 23 Feb 04:00:06 04:05:06 46° 292° (WNW) 04:10:04 435.822/435.867
AO-85 23 Feb 04:04:39 04:08:22 26° 117° (ESE) 04:11:54 145.980
MOZHAYETS 4 23 Feb 04:05:13 04:06:53 12° 274° (W) 04:08:34
STRAND 1 23 Feb 04:20:29 04:22:07 11° 52° (NE) 04:23:44 437.568
AO-7 23 Feb 04:39:09 04:47:16 59° 298° (WNW) 04:55:19 .
CUTE-I 23 Feb 04:50:51 04:53:48 15° 87° (E) 04:56:42 437.470
KKS-1 23 Feb 04:54:37 04:56:10 12° 272° (W) 04:57:43 437.445
CUBESAT XI-V 23 Feb 04:55:38 04:59:03 20° 269° (W) 05:02:28 437.345
XW-2F 23 Feb 04:55:50 04:57:29 12° 89° (E) 04:59:07 145.980 - 146.000
KAITUO 1B 23 Feb 04:56:24 04:56:54 10° 87° (E) 04:57:23 145.475/437.950
XW-2D 23 Feb 04:58:31 05:00:37 14° 90° (E) 05:02:42 145.860 - 145.880
DOVE 4 23 Feb 05:01:06 05:04:34 21° 92° (E) 05:08:10 437.250
XW-2B 23 Feb 05:03:18 05:05:39 15° 90° (E) 05:07:58 145.730 - 145.750
SO-50 23 Feb 05:09:18 05:12:39 20° 30° (NNE) 05:15:57 436.795
XW-2C 23 Feb 05:11:28 05:14:16 19° 92° (E) 05:17:03 145.795 - 145.815
LilacSat-2 23 Feb 05:25:12 05:28:33 27° 95° (E) 05:31:52 437.200
NUDT-PHONESAT 23 Feb 05:32:08 05:35:21 26° 95° (E) 05:38:32 437.300
AO-85 23 Feb 05:44:20 05:48:37 46° 314° (NW) 05:52:38 145.980
STRAND 1 23 Feb 05:55:14 06:00:19 64° 71° (ENE) 06:05:26 437.568
HO-68 23 Feb 06:02:46 06:07:18 18° 87° (E) 06:11:49 435.675
KAITUO 1B 23 Feb 06:27:38 06:31:25 72° 286° (WNW) 06:35:10 145.475/437.950
XW-2F 23 Feb 06:28:15 06:32:02 60° 286° (WNW) 06:35:47 145.980 - 146.000
CUTE-I 23 Feb 06:29:08 06:34:34 87° 286° (WNW) 06:39:57 437.470
CUBEBUG 2 23 Feb 06:31:07 06:31:19 10° 84° (E) 06:31:30 437.445
XW-2D 23 Feb 06:31:23 06:35:09 52° 287° (WNW) 06:38:52 145.860 - 145.880
AO-7 23 Feb 06:33:18 06:38:23 18° 321° (NW) 06:43:28 .
CUTE 1.7 + AOD 2 23 Feb 06:35:49 06:39:02 21° 92° (E) 06:42:13 437.475
XW-2B 23 Feb 06:36:24 06:40:08 47° 288° (WNW) 06:43:48 145.730 - 145.750
DOVE 4 23 Feb 06:38:04 06:42:31 52° 288° (WNW) 06:47:13 437.250
BEESAT 3 23 Feb 06:43:54 06:47:44 57° 123° (ESE) 06:51:39 437.485
XW-2C 23 Feb 06:45:03 06:48:38 38° 290° (WNW) 06:52:11 145.795 - 145.815
SO-50 23 Feb 06:49:14 06:53:47 85° 52° (NE) 06:58:16 436.795
LilacSat-2 23 Feb 06:59:30 07:02:47 27° 293° (WNW) 07:06:02 437.200
NUDT-PHONESAT 23 Feb 07:06:02 07:09:16 27° 292° (WNW) 07:12:28 437.300
UWE-3 23 Feb 07:11:17 07:14:18 17° 89° (E) 07:17:16 435.000/436.395/437.385
PRISM 23 Feb 07:12:48 07:15:40 19° 62° (ENE) 07:18:32 437.425
BEESAT 2 23 Feb 07:16:43 07:20:35 53° 122° (ESE) 07:24:30 435.950
XW-2A 23 Feb 07:23:31 07:27:00 77° 284° (WNW) 07:30:27 145.665 - 145.685
AO-85 23 Feb 07:28:15 07:29:59 12° 335° (NNW) 07:31:42 145.980
AAUSAT CUBESAT 2 23 Feb 07:34:00 07:37:35 28° 95° (E) 07:41:08 437.432
STRAND 1 23 Feb 07:36:18 07:39:56 19° 270° (W) 07:43:37 437.568
SEEDS 23 Feb 07:37:09 07:41:18 59° 100° (E) 07:45:25 437.485
ZACube-1 23 Feb 07:37:45 07:40:55 18° 90° (E) 07:44:02 437.345
O/OREOS (USA 219) 23 Feb 07:40:19 07:44:35 37° 56° (NE) 07:48:51 437.305
HO-68 23 Feb 07:48:53 07:56:05 84° 107° (ESE) 08:03:15 435.675
FO-29 23 Feb 07:58:25 08:04:08 25° 53° (NE) 08:10:08 435.910
CUBEBUG 2 23 Feb 08:03:54 08:08:42 78° 103° (ESE) 08:13:27 437.445
CUTE-I 23 Feb 08:10:39 08:13:51 16° 305° (NW) 08:17:03 437.470
CUTE 1.7 + AOD 2 23 Feb 08:11:03 08:15:03 42° 290° (WNW) 08:19:01 437.475
UNISAT 6 23 Feb 08:13:26 08:17:27 33° 66° (ENE) 08:21:35 437.425
TIGRISAT 23 Feb 08:14:32 08:18:31 31° 66° (ENE) 08:22:35 435.000
ISS 23 Feb 08:15:23 08:17:53 20° 139° (SE) 08:20:23 437.550
BEESAT 3 23 Feb 08:22:30 08:25:39 22° 323° (NW) 08:28:51 437.485
AO-73 23 Feb 08:26:48 08:31:15 48° 98° (E) 08:35:36 145.935
SO-50 23 Feb 08:31:19 08:33:36 14° 250° (WSW) 08:35:51 436.795
Oscar 11 23 Feb 08:36:38 08:40:53 52° 100° (E) 08:45:05 .
Tancredo 1 23 Feb 08:46:03 08:49:03 35° 145° (SE) 08:52:04 437.200
UWE-3 23 Feb 08:46:31 08:51:11 64° 287° (WNW) 08:55:47 435.000/436.395/437.385
PRISM 23 Feb 08:46:42 08:50:39 48° 260° (W) 08:54:37 437.425
BEESAT 2 23 Feb 08:55:21 08:58:38 24° 323° (NW) 09:01:56 435.950
AAUSAT CUBESAT 2 23 Feb 09:09:26 09:13:02 29° 293° (WNW) 09:16:36 437.432
ZACube-1 23 Feb 09:13:02 09:17:33 56° 288° (WNW) 09:22:00 437.345
SEEDS 23 Feb 09:13:58 09:16:34 16° 299° (WNW) 09:19:09 437.485
O/OREOS (USA 219) 23 Feb 09:19:57 09:23:53 29° 255° (WSW) 09:27:49 437.305
YUBILEINY 23 Feb 09:23:19 09:31:07 37° 84° (E) 09:38:56 435.215
DELFI C3 23 Feb 09:27:24 09:31:17 60° 100° (E) 09:35:10 145.870
DUCHIFAT 1 23 Feb 09:34:45 09:37:46 19° 62° (ENE) 09:40:47 145.980
HO-68 23 Feb 09:37:32 09:43:03 25° 307° (NW) 09:48:33 435.675
AIST 2D 23 Feb 09:39:42 09:42:52 31° 69° (ENE) 09:46:04 435.315
FO-29 23 Feb 09:41:00 09:48:10 88° 256° (WSW) 09:56:01 435.910
CUBEBUG 2 23 Feb 09:41:49 09:44:43 16° 301° (WNW) 09:47:37 437.445
EO-79 23 Feb 09:42:12 09:45:43 26° 65° (ENE) 09:49:16 145.935-145.965
UNISAT 6 23 Feb 09:50:10 09:54:09 31° 265° (W) 09:58:15 437.425
ISS 23 Feb 09:50:43 09:54:02 84° 337° (NNW) 09:57:21 437.550
TIGRISAT 23 Feb 09:51:07 09:55:10 32° 265° (W) 09:59:19 435.000
POLYITAN 1 23 Feb 09:58:30 10:02:24 37° 68° (ENE) 10:06:22 437.675
NANOSAT C BR1 23 Feb 10:00:15 10:04:06 35° 68° (ENE) 10:07:59 145.865
QB50P2 23 Feb 10:01:15 10:05:16 42° 69° (ENE) 10:09:18 145.880/145.840
AO-73 23 Feb 10:03:38 10:07:10 22° 297° (WNW) 10:10:39 145.935
Oscar 11 23 Feb 10:13:35 10:16:39 19° 298° (WNW) 10:19:44 .
ESTCUBE 1 23 Feb 10:14:49 10:17:38 16° 90° (E) 10:20:25 437.505/2401.250
Tancredo 1 23 Feb 10:22:03 10:25:17 57° 345° (NNW) 10:28:29 437.200
UWE-3 23 Feb 10:26:26 10:26:42 10° 306° (NW) 10:26:59 435.000/436.395/437.385
BUGSAT 1 23 Feb 10:40:22 10:43:57 31° 67° (ENE) 10:47:35 437.445
VELOX 1 23 Feb 10:50:42 10:52:39 13° 88° (E) 10:54:37 145.980
AO-85 23 Feb 10:52:44 10:54:39 13° 26° (NNE) 10:56:33 145.980
DELFI C3 23 Feb 11:03:28 11:05:39 15° 299° (WNW) 11:07:50 145.870
DUCHIFAT 1 23 Feb 11:09:01 11:13:06 49° 260° (W) 11:17:14 145.980
AIST 2D 23 Feb 11:13:29 11:16:10 20° 267° (W) 11:18:53 435.315
SPROUT 23 Feb 11:14:45 11:17:46 18° 91° (E) 11:20:47 437.525
EO-79 23 Feb 11:17:29 11:21:21 35° 263° (W) 11:25:16 145.935-145.965
YUBILEINY 23 Feb 11:18:55 11:27:35 57° 286° (WNW) 11:36:15 435.215
ISS 23 Feb 11:27:35 11:30:45 41° 357° (N) 11:33:54 437.550
FO-29 23 Feb 11:29:12 11:34:18 20° 276° (W) 11:39:42 435.910
50 SAT 23 Feb 11:30:40 11:33:12 19° 94° (E) 11:35:43 437.505
Oscar 19 23 Feb 11:34:20 11:39:05 39° 66° (ENE) 11:43:50 437.125/150
POLYITAN 1 23 Feb 11:34:52 11:38:18 24° 266° (W) 11:41:48 437.675
NANOSAT C BR1 23 Feb 11:36:26 11:39:54 25° 266° (W) 11:43:25 145.865
QB50P2 23 Feb 11:38:00 11:41:14 21° 267° (W) 11:44:31 145.880/145.840
ESTCUBE 1 23 Feb 11:50:24 11:54:50 61° 288° (WNW) 11:59:14 437.505/2401.250
Tancredo 1 23 Feb 11:58:48 12:01:54 40° 4° (N) 12:05:00 437.200
AO-7 23 Feb 12:00:02 12:05:44 21° 43° (NE) 12:11:26 .
Gurwin Techsat 1B 23 Feb 12:01:31 12:06:26 39° 66° (ENE) 12:11:22 435.225
ITAMSAT 1 23 Feb 12:07:21 12:08:42 11° 50° (NE) 12:10:04 435.822/435.867
BUGSAT 1 23 Feb 12:15:53 12:19:19 27° 265° (W) 12:22:50 437.445
DX 1 23 Feb 12:24:05 12:28:19 49° 100° (E) 12:32:32 434.975-435.025
VELOX 1 23 Feb 12:25:14 12:29:39 76° 286° (WNW) 12:34:04 145.980
AO-85 23 Feb 12:32:01 12:35:54 57° 48° (NE) 12:39:46 145.980
UKube-1 23 Feb 12:40:35 12:44:49 52° 101° (E) 12:49:03 .
SPROUT 23 Feb 12:49:48 12:53:59 50° 289° (WNW) 12:58:08 437.525
50 SAT 23 Feb 13:03:18 13:06:25 31° 291° (WNW) 13:09:31 437.505
ISS 23 Feb 13:04:16 13:07:33 60° 17° (NNE) 13:10:48 437.550
Oscar 19 23 Feb 13:13:53 13:18:28 32° 265° (W) 13:23:04 437.125/150
BEESAT 3 23 Feb 13:20:38 13:23:34 19° 34° (NE) 13:26:30 437.485
YUBILEINY 23 Feb 13:22:13 13:26:44 15° 312° (NW) 13:31:17 435.215
ITUPSAT 1 23 Feb 13:29:50 13:32:32 15° 89° (E) 13:35:13 437.325
Tancredo 1 23 Feb 13:35:10 13:38:26 87° 24° (NNE) 13:41:39 437.200
BEESAT 23 Feb 13:37:28 13:40:42 18° 90° (E) 13:43:55 436.000
Gurwin Techsat 1B 23 Feb 13:41:41 13:46:26 33° 265° (W) 13:51:14 435.225
ITAMSAT 1 23 Feb 13:42:02 13:47:08 60° 70° (ENE) 13:52:18 435.822/435.867
AO-7 23 Feb 13:48:50 13:57:06 69° 65° (ENE) 14:05:24 .
BEESAT 2 23 Feb 13:54:08 13:57:04 19° 33° (NNE) 13:59:59 435.950
DX 1 23 Feb 14:00:58 14:04:12 21° 298° (WNW) 14:07:25 434.975-435.025
VELOX 1 23 Feb 14:04:15 14:05:20 11° 305° (NW) 14:06:26 145.980
AO-85 23 Feb 14:13:23 14:15:52 16° 247° (WSW) 14:18:23 145.980
MOZHAYETS 4 23 Feb 14:17:06 14:20:01 16° 89° (E) 14:22:56
UKube-1 23 Feb 14:17:27 14:20:31 19° 299° (WNW) 14:23:34 .
ISS 23 Feb 14:40:54 14:43:54 33° 216° (SW) 14:46:54 437.550
BEESAT 3 23 Feb 14:57:38 15:01:40 78° 233° (SW) 15:05:40 437.485
KKS-1 23 Feb 15:03:50 15:05:43 12° 88° (E) 15:07:37 437.445
ITUPSAT 1 23 Feb 15:06:07 15:10:56 75° 286° (WNW) 15:15:42 437.325
Tancredo 1 23 Feb 15:12:02 15:14:22 18° 222° (SW) 15:16:41 437.200
BEESAT 23 Feb 15:14:10 15:18:54 62° 289° (WNW) 15:23:37 436.000
ITAMSAT 1 23 Feb 15:23:06 15:27:00 21° 268° (W) 15:30:56 435.822/435.867
BEESAT 2 23 Feb 15:31:18 15:35:22 83° 232° (SW) 15:39:24 435.950
PCSat 23 Feb 15:39:13 15:43:44 27° 110° (ESE) 15:48:15 145.827
XW-2F 23 Feb 15:40:58 15:42:12 11° 59° (ENE) 15:43:27 145.980 - 146.000
STARS 23 Feb 15:43:07 15:45:34 15° 89° (E) 15:48:02 437.465
AO-7 23 Feb 15:43:14 15:50:28 32° 265° (W) 15:57:45 .
XW-2D 23 Feb 15:43:47 15:45:32 13° 60° (ENE) 15:47:18 145.860 - 145.880
XW-2B 23 Feb 15:48:29 15:50:30 14° 61° (ENE) 15:52:32 145.730 - 145.750
MOZHAYETS 4 23 Feb 15:53:02 15:57:37 63° 288° (WNW) 16:02:09
XW-2C 23 Feb 15:56:28 15:58:58 17° 63° (ENE) 16:01:29 145.795 - 145.815
DOVE 4 23 Feb 16:10:21 16:13:48 26° 66° (ENE) 16:17:17 437.250
LilacSat-2 23 Feb 16:10:25 16:13:32 24° 66° (ENE) 16:16:41 437.200
RS-15 23 Feb 16:12:56 16:22:58 33° 104° (ESE) 16:33:15 29.354- 29.394
NUDT-PHONESAT 23 Feb 16:15:07 16:17:59 21° 65° (ENE) 16:20:52 437.300
CUTE-I 23 Feb 16:15:17 16:20:02 34° 64° (ENE) 16:24:50 437.470
HO-68 23 Feb 16:35:39 16:40:51 22° 51° (NE) 16:46:04 435.675
KKS-1 23 Feb 16:38:22 16:42:51 80° 285° (WNW) 16:47:19 437.445
ITUPSAT 1 23 Feb 16:46:06 16:47:55 12° 306° (NW) 16:49:46 437.325
CUBESAT XI-V 23 Feb 16:46:55 16:51:33 82° 105° (ESE) 16:56:08 437.345
M-CUBED/EXP-1 PRIME 23 Feb 16:49:45 16:52:58 27° 103° (ESE) 16:56:22 437.505
BEESAT 23 Feb 16:55:20 16:55:44 10° 308° (NW) 16:56:08 436.000
KAITUO 1B 23 Feb 17:10:28 17:14:17 85° 76° (ENE) 17:18:08 145.475/437.950
XW-2F 23 Feb 17:11:56 17:15:46 79° 257° (WSW) 17:19:40 145.980 - 146.000
XW-2D 23 Feb 17:15:24 17:19:13 68° 258° (WSW) 17:23:06 145.860 - 145.880
STARS 23 Feb 17:17:58 17:22:23 68° 287° (WNW) 17:26:47 437.465
XW-2B 23 Feb 17:20:25 17:24:14 62° 260° (W) 17:28:05 145.730 - 145.750
PCSat 23 Feb 17:21:30 17:26:49 55° 310° (NW) 17:32:11 145.827
XW-2C 23 Feb 17:29:05 17:32:50 48° 261° (W) 17:36:37 145.795 - 145.815
CUBEBUG 2 23 Feb 17:31:19 17:33:28 13° 57° (ENE) 17:35:40 437.445
CUTE 1.7 + AOD 2 23 Feb 17:31:36 17:35:02 24° 65° (ENE) 17:38:28 437.475
LilacSat-2 23 Feb 17:44:11 17:47:41 32° 264° (W) 17:51:14 437.200
DOVE 4 23 Feb 17:47:44 17:51:26 32° 264° (W) 17:55:12 437.250
NUDT-PHONESAT 23 Feb 17:48:15 17:51:43 35° 263° (W) 17:55:14 437.300
CUTE-I 23 Feb 17:55:02 18:00:01 39° 263° (W) 18:05:03 437.470
XW-2A 23 Feb 17:57:53 18:01:14 58° 74° (ENE) 18:04:37 145.665 - 145.685
STRAND 1 23 Feb 18:03:22 18:06:40 17° 89° (E) 18:09:55 437.568
UWE-3 23 Feb 18:11:25 18:14:43 20° 62° (ENE) 18:18:05 435.000/436.395/437.385
KKS-1 23 Feb 18:17:10 18:18:40 12° 305° (NW) 18:20:09 437.445
HO-68 23 Feb 18:20:29 18:27:40 86° 72° (ENE) 18:34:53 435.675
RS-15 23 Feb 18:22:05 18:34:11 85° 308° (NW) 18:46:41 29.354- 29.394
M-CUBED/EXP-1 PRIME 23 Feb 18:24:16 18:27:25 28° 298° (WNW) 18:30:45 437.505
CUBESAT XI-V 23 Feb 18:25:49 18:28:18 15° 302° (WNW) 18:30:47 437.345
AAUSAT CUBESAT 2 23 Feb 18:27:12 18:30:49 30° 67° (ENE) 18:34:28 437.432
SEEDS 23 Feb 18:31:37 18:35:48 63° 74° (ENE) 18:40:01 437.485
ZACube-1 23 Feb 18:36:37 18:40:03 22° 63° (ENE) 18:43:32 437.345
CUBEBUG 2 23 Feb 19:04:55 19:09:22 88° 255° (WSW) 19:14:00 437.445
CUTE 1.7 + AOD 2 23 Feb 19:06:39 19:10:40 39° 263° (W) 19:14:43 437.475
PCSat 23 Feb 19:08:01 19:11:27 17° 333° (NNW) 19:14:52 145.827
AO-73 23 Feb 19:25:02 19:29:23 55° 72° (ENE) 19:33:51 145.935
YUBILEINY 23 Feb 19:28:35 19:35:12 23° 57° (ENE) 19:41:45 435.215
XW-2A 23 Feb 19:34:03 19:34:24 10° 271° (W) 19:34:46 145.665 - 145.685
Oscar 11 23 Feb 19:34:15 19:38:33 60° 72° (ENE) 19:42:51 .
STRAND 1 23 Feb 19:41:13 19:46:24 74° 287° (WNW) 19:51:32 437.568
UWE-3 23 Feb 19:46:25 19:50:47 53° 260° (W) 19:55:18 435.000/436.395/437.385
AAUSAT CUBESAT 2 23 Feb 20:02:39 20:06:16 29° 265° (W) 20:09:55 437.432
SEEDS 23 Feb 20:09:36 20:11:55 14° 271° (W) 20:14:15 437.485
HO-68 23 Feb 20:11:10 20:16:16 21° 271° (W) 20:21:25 435.675
ZACube-1 23 Feb 20:11:42 20:16:01 48° 261° (W) 20:20:26 437.345
DELFI C3 23 Feb 20:15:49 20:19:41 54° 72° (ENE) 20:23:33 145.870
PRISM 23 Feb 20:25:16 20:28:00 17° 92° (E) 20:30:43 437.425
